Back to catalog

COSMOS 2131

AliveMilitaryLEO
NORAD 21106·PAYLOAD·🇷🇺 Russia

Launched Feb 12, 1991 from Plesetsk Cosmodrome

Loading…

Next Passes (next 24 hours)

TLE

FreshSource: Space-Track

Epoch: Sep 14, 2026, 11:32 UTC

1 21106U 91009G   26257.48084590 -.00000026  00000-0 -56330-4 0  9990
2 21106  74.0268 270.1106 0051573  29.9087  42.0574 12.58965606635501

Track COSMOS 2131 in real time with AllMySat

Download on the App Store